QASED R/B (45530 NORAD) Tracking and Keplerian Element Data

This shows tracking and keplerian element data for the satellite.

Feedback or suggestion? Click here.




ElementValue
Catalog45530
NameQASED R/B
Epoch Orbit443
Epoch Day141.90138784
Epoch Year2020
RAAN57.3699
Inclination59.7985
Eccentricity0.0009874
Argument of Perigee261.8493
Mean Anonmoly98.1472
Mean Motion15.43692067
Decay Rate8.67E-06
L11 45530U 20024B 20141.90138784 .00000867 00000-0 26911-4 0 9997
L22 45530 59.7985 57.3699 0009874 261.8493 98.1472 15.43692067 4437

Live tracking and technical data element details for QASED R/B (NORAD 45530). QASED R/B can be tracked NOW for your location showing map with azimuth and elevation plus other details from your city location.

Track the satellite on the map from your city or location and see movement details for azimuth, elevation, latitude, longitude, range, height, and movement on the map or in text.







IsCatalogInMostPopularTable: catalog: 45530, numindb: 10
Update: records affected: 1



GetName: 45530 QASED R/B

Hit Count: updated at: Mon, 25 May 2020 08:37:09 GMT